Retour au catalogue

STARLINK-34915

ActifCommunicationsSSO
NORAD 65187·PAYLOAD·🇺🇸 United States

Lancé Aug 14, 2025 depuis Vandenberg Space Force Base

Loading…

Prochains Passages (prochaines 24 heures)

TLE

FraisSource: CelesTrak SupGP

Époque: Sep 15, 2026, 02:54 UTC

1 65187C 25175P   26258.12131944  .00034192  00000+0  10613-2 0  2584
2 65187  97.2846 127.1401 0002022  93.4326 350.5302 15.33424347    19

Suivez STARLINK-34915 en temps réel avec AllMySat

Download on the App Store